Location: Newark
(25.4297°S, 49.2719°W)
Time: 01:30:23
(UTC+00:00)

Envisat - Visible Passes

Search period start: 14 October 2019 00:00
Search period end: 24 October 2019 00:00
Orbit: 764 x 766 km, 98.1° (Epoch: 13 October)

Date Brightness Start Highest point End Pass type
(mag) Time Alt. Az. Time Alt. Az. Time Alt. Az.
14 Oct 4.3 22:34:31 10° S 22:39:22 43° WSW 22:44:11 10° NW visible
15 Oct 3.0 21:57:35 10° SSE 22:02:43 73° ENE 22:07:47 10° N visible
16 Oct 5.4 23:00:44 10° SSW 23:04:42 23° WSW 23:08:38 10° WNW visible
17 Oct 3.7 22:23:07 10° S 22:28:10 58° WSW 22:33:08 10° NNW visible
18 Oct 3.1 21:46:26 10° SSE 21:51:27 54° E 21:56:25 10° N visible
18 Oct 6.3 23:28:05 10° SW 23:29:55 12° WSW 23:31:45 10° W visible
19 Oct 5.0 22:49:05 10° SSW 22:53:31 30° WSW 22:57:54 10° NW visible
20 Oct 3.2 22:11:48 10° S 22:16:56 77° WSW 22:22:00 10° NNW visible
21 Oct 6.0 23:15:46 10° SSW 23:18:47 16° WSW 23:21:47 10° WNW visible
22 Oct 4.5 22:37:35 10° S 22:42:19 39° WSW 22:47:01 10° NW visible
23 Oct 3.0 22:00:33 10° SSE 22:05:41 81° ENE 22:10:46 10° N visible
